TimeEDT,TemperatureF,Dew PointF,Humidity,Sea Level PressureIn,VisibilityMPH,Wind Direction,Wind SpeedMPH,Gust SpeedMPH,PrecipitationIn,Events,Conditions,WindDirDegrees,DateUTC
12:58 AM,41.9,21.7,45,30.26,10.0,Variable,4.6,-,N/A,,Clear,0,2013-03-28 04:58:00
1:58 AM,41.4,20.5,43,30.27,10.0,NNE,5.8,-,N/A,,Clear,30,2013-03-28 05:58:00
2:58 AM,39.0,21.0,49,30.27,10.0,Variable,1.2,-,N/A,,Clear,0,2013-03-28 06:58:00
3:58 AM,37.2,21.0,52,30.26,10.0,Calm,Calm,-,N/A,,Clear,350,2013-03-28 07:58:00
4:58 AM,33.3,23.0,66,30.27,10.0,WNW,2.3,-,N/A,,Clear,290,2013-03-28 08:58:00
5:58 AM,30.4,23.0,74,30.28,10.0,NW,3.5,-,N/A,,Clear,320,2013-03-28 09:58:00
6:58 AM,29.3,23.7,80,30.30,10.0,NW,2.3,-,N/A,,Clear,320,2013-03-28 10:58:00
7:58 AM,29.3,24.6,83,30.32,10.0,WNW,3.5,-,N/A,,Clear,300,2013-03-28 11:58:00
8:58 AM,41.7,23.0,47,30.33,10.0,North,5.8,-,N/A,,Clear,10,2013-03-28 12:58:00
9:55 AM,46.9,19.0,33,30.33,10.0,North,8.1,-,N/A,,Clear,10,2013-03-28 13:55:00
10:58 AM,49.6,19.6,31,30.33,10.0,NNE,5.8,-,N/A,,Clear,20,2013-03-28 14:58:00
11:58 AM,52.5,20.8,29,30.31,10.0,NW,12.7,17.3,N/A,,Clear,310,2013-03-28 15:58:00
12:58 PM,54.1,20.3,27,30.29,10.0,NW,9.2,-,N/A,,Clear,320,2013-03-28 16:58:00
1:58 PM,56.3,21.4,26,30.27,10.0,NW,15.0,21.9,N/A,,Clear,310,2013-03-28 17:58:00
2:58 PM,57.2,21.6,25,30.25,10.0,NW,10.4,-,N/A,,Clear,310,2013-03-28 18:58:00
3:58 PM,58.6,22.3,25,30.22,10.0,West,9.2,-,N/A,,Clear,280,2013-03-28 19:58:00
4:58 PM,59.9,22.5,24,30.20,10.0,West,11.5,-,N/A,,Clear,270,2013-03-28 20:58:00
5:58 PM,60.1,22.1,23,30.21,10.0,Variable,6.9,-,N/A,,Clear,0,2013-03-28 21:58:00
6:58 PM,58.6,21.6,24,30.22,10.0,West,5.8,-,N/A,,Clear,260,2013-03-28 22:58:00
7:58 PM,51.6,22.8,32,30.24,10.0,NW,2.3,-,N/A,,Clear,320,2013-03-28 23:58:00
8:58 PM,43.3,28.4,56,30.25,10.0,NE,3.5,-,N/A,,Clear,50,2013-03-29 00:58:00
9:58 PM,41.4,29.3,62,30.27,10.0,NNE,2.3,-,N/A,,Clear,30,2013-03-29 01:58:00
10:58 PM,37.8,30.4,75,30.30,10.0,Calm,Calm,-,N/A,,Clear,0,2013-03-29 02:58:00
11:58 PM,36.3,28.9,75,30.30,10.0,NE,2.3,-,N/A,,Clear,40,2013-03-29 03:58:00